This is the latest recevied weather packets stored in our database for station/object KI6PPU. If no packets are shown the sender has not sent any weather packets the latest 10 day(s).
| Time | Temp. | Humidity | Pressure | Rain* | Wind** | Luminosity | Snow |
|---|---|---|---|---|---|---|---|
| 1787762478 | 31.11° C | 36% | 1018.5 hPa | 0 mm | - | 494 W/m² | - |
| 1787762175 | 31.67° C | 36% | 1018.4 hPa | 0 mm | - | 388 W/m² | - |
| 1787761870 | 30.56° C | 37% | 1018.5 hPa | 0 mm | - | 336 W/m² | - |
| 1787761566 | 30° C | 39% | 1018.5 hPa | 0 mm | - | 371 W/m² | - |
| 1787761261 | 29.44° C | 40% | 1018.5 hPa | 0 mm | - | 371 W/m² | - |
| 1787760959 | 30° C | 38% | 1018.5 hPa | 0 mm | - | 355 W/m² | - |
| 1787760657 | 29.44° C | 39% | 1018.5 hPa | 0 mm | - | 316 W/m² | - |
| 1787760357 | 28.89° C | 39% | 1018.4 hPa | 0 mm | - | 371 W/m² | - |
| 1787760051 | 28.89° C | 39% | 1018.5 hPa | 0 mm | - | 311 W/m² | - |
| 1787759744 | 27.78° C | 40% | 1018.6 hPa | 0 mm | - | 265 W/m² | - |
| 1787759440 | 26.67° C | 43% | 1018.6 hPa | 0 mm | - | 276 W/m² | - |
| 1787759135 | 27.22° C | 43% | 1018.5 hPa | 0 mm | - | 252 W/m² | - |
| 1787758834 | 26.11° C | 43% | 1018.4 hPa | 0 mm | - | 223 W/m² | - |
| 1787758530 | 25° C | 45% | 1018.4 hPa | 0 mm | - | 179 W/m² | - |
| 1787758229 | 25° C | 45% | 1018.6 hPa | 0 mm | - | 202 W/m² | - |
| 1787757924 | 24.44° C | 46% | 1018.5 hPa | 0 mm | - | 225 W/m² | - |
| 1787757621 | 24.44° C | 45% | 1018.8 hPa | 0 mm | - | 199 W/m² | - |
| 1787757319 | 23.89° C | 47% | 1018.6 hPa | 0 mm | - | 165 W/m² | - |
| 1787757020 | 23.33° C | 47% | 1018.8 hPa | 0 mm | - | 149 W/m² | - |
| 1787756714 | 22.78° C | 48% | 1018.8 hPa | 0 mm | - | 132 W/m² | - |
| 1787756409 | 21.67° C | 50% | 1018.8 hPa | 0 mm | - | 139 W/m² | - |
| 1787756102 | 20.56° C | 52% | 1018.9 hPa | 0 mm | - | 108 W/m² | - |
| 1787755797 | 20° C | 53% | 1018.4 hPa | 0 mm | - | 100 W/m² | - |
| 1787755497 | 20° C | 54% | 1018.5 hPa | 0 mm | - | 84 W/m² | - |
| 1787755192 | 20° C | 53% | 1018.4 hPa | 0 mm | - | 89 W/m² | - |
* Rain latest hour (hover to see other rain measurements)
** Current wind speed in m/s (hover to see current wind gust speed)